Preview of NWS' New Version of Forecast
This preview is not operational and should not be used for support decisions.
Latest weather observations around

Pottstown, Pottstown Limerick Airport (KPTW)

Using International System of Units (Switch to English Units)
Date/ Time (EDT) Wind (kph) Vis. (km) Weather Sky Cond. Temp (°C) Rel. Humidity Wind Chill (°C) Heat Index (°C) Pressure Precip. (cm)
Air Dwpt 6 hour Altimeter (hPa) Sea level (hPa) 1 hr 3 hr 6 hr
Max Min
Aug 22 03:09 Calm 4.83 Fog/Mist CLR 21        %     1012.2        
Aug 22 03:05 SW 5 2.41 Fog/Mist CLR 21        %     1012.2        
Aug 22 02:54 Calm 3.22 Fog/Mist CLR 21        %     1012.2 1011.8      
Aug 22 02:52 Calm 4.02 Fog/Mist CLR 21        %     1012.2        
Aug 22 02:39 Calm 2.82 Fog/Mist CLR 21        %     1012.2        
Aug 22 02:26 Calm 4.83 Fog/Mist FEW004 21        %     1012.2        
Aug 22 02:20 Calm 2.01 Fog/Mist FEW004 21        %     1012.2        
Aug 22 02:14 Calm 1.21 Fog/Mist VV004 21        %     1012.5        
Aug 22 02:06 Calm 1.61 Fog/Mist VV005 21        %     1012.5        
Aug 22 02:02 Calm 1.21 Fog/Mist VV004 21        %     1012.5        
Aug 22 01:54 Calm 1.61 Fog/Mist VV003 21        %     1012.5 1012.1     1
Aug 22 01:52 Calm 2.41 Fog/Mist CLR 21        %     1012.5        
Aug 22 00:54 Calm 14.48 Partly Cloudy FEW022 SCT110 22        %     1012.9 1012.4      
Aug 22 00:09 Calm 4.83 Fog/Mist CLR 21        %     1012.9        
Aug 21 23:54 Calm 4.02 Fog/Mist CLR 21        %     1012.9 1012.2      
Aug 21 22:54 Calm 12.87 Cloudy FEW048 BKN060 OVC110 22        %     1012.9 1012.3 0 1  
Aug 21 21:54 Calm 14.48 Cloudy FEW055 OVC085 22        %     1013.2 1012.7 0    
Aug 21 21:35 Calm 16.09 Cloudy FEW055 BKN085 OVC100 23        %     1013.2   0    
Aug 21 21:08 5 11.27 Light Rain FEW010 BKN070 OVC085 23        %     1013.2   0    
Aug 21 21:01 11 4.02 Light Rain and Fog/Mist FEW010 BKN034 OVC075 23        %     1013.2   0    
Aug 21 20:54 WNW 11 2.01 Thunderstorms and Heavy Rain and Fog/Mist FEW010 BKN034 OVC048 23        %     1013.2 1012.7 1    
Aug 21 20:46 11 1.61 Thunderstorms and Heavy Rain and Fog/Mist FEW010 BKN029 OVC045 23        %         1    
Aug 21 20:37 WSW 11 2.82 Heavy Rain and Fog/Mist FEW012 SCT037 OVC046 24 23     96%   25     0    
Aug 21 20:31 SSW 5 6.44 Rain and Fog/Mist OVC046 24 23     94%   25 1012.5   0    
Aug 21 19:54 Calm 14.48 Mostly Clear FEW047 24 23     96%   25 1012.2 1011.6     1
Aug 21 18:54 Calm 14.48 Clear CLR 26 23     85%   26 1011.9 1011.3      
Aug 21 17:54 9 16.09 Clear CLR 25 22     84%   26 1012.9 1012.2 0    
Aug 21 17:38 S 5 14.48 Mostly Clear FEW036 24 22     88%   25 1012.5   0    
Aug 21 17:23 Calm 14.48 Mostly Clear FEW037 FEW065 24 23     94%   25 1012.5   0    
Aug 21 17:16 11 14.48 Mostly Clear FEW065 24 23     91%   25 1012.9   0    
Aug 21 16:54 S 9 16.09 Light Rain FEW034 SCT065 BKN095 24 21     84%   25 1013.2 1012.5 0 1  
Aug 21 16:15 WSW 11 4.83 Thunderstorms and Rain and Fog/Mist SCT035 BKN070 OVC090 23 22     94%   24 1012.9   0    
Aug 21 16:08 SW 11 1.61 Thunderstorms and Heavy Rain and Fog/Mist BKN035 BKN065 OVC110 23 22     94%   24 1013.2   0    
Aug 21 15:54 WNW 21 3.22 Thunderstorms and Rain SCT037 BKN090 OVC110 26 23     82%   28 1012.9 1012.4 0    
Aug 21 15:49 WNW 9 4.02 Thunderstorms and Rain FEW039 SCT065 BKN110 27 23     79%   30 1012.9   0    
Aug 21 15:32 SW 9 12.87 Mostly Cloudy SCT040 SCT080 BKN110 29 22     65%   32 1012.5        
Aug 21 14:54 SW 11 14.48 Mostly Cloudy FEW036 SCT070 BKN110 30 22     63%   33 1012.9 1012.5      
Aug 21 13:54 S 11 14.48 Mostly Cloudy FEW032 SCT042 BKN049 29 23     68%   33 1013.6 1012.9     0
Aug 21 12:54 11 12.87 Partly Cloudy SCT026 28 22     70%   31 1013.6 1013.1      
Aug 21 12:39 S 11 12.87 Mostly Cloudy BKN028 BKN035 28 22     72%   30 1013.9        
Aug 21 12:31 9 12.87 Mostly Cloudy SCT026 BKN033 28 22     72%   30 1014.2        
Aug 21 12:02 Calm 12.87 Cloudy BKN026 OVC032 27 22     72%   29 1014.6        
Aug 21 11:54 SW 11 12.87 Cloudy SCT023 OVC030 27 22     72%   29 1014.9 1014.4      
Aug 21 10:54 SW 8 12.87 Mostly Cloudy BKN025 26 22     82%   26 1015.6 1015 0 0  
Aug 21 09:54 SSW 11 14.48 Mostly Cloudy SCT022 BKN027 BKN100 26 22     79%   26 1015.9 1015.4      
Aug 21 08:54 S 11 12.87 Clear CLR 24 21     82%   25 1015.9 1015.5      
Aug 21 07:54 5 11.27 Clear CLR 23 21     90%   23 1015.9 1015.4      
Aug 21 06:54 Calm 9.66 Fog/Mist CLR 22 22     100%   23 1015.9 1015.3      
Aug 21 05:54 Calm 12.87 Clear CLR 22 22     100%   23 1015.9 1015.3      
Aug 21 04:54 Calm 11.27 Clear CLR 21 21     100%     1015.9 1015.5      
Aug 21 03:54 Calm 11.27 Clear CLR 21 21     100%     1015.9 1015.6      
Aug 21 02:54 Calm 14.48 Clear CLR 23 22     96%   24 1016.9 1016.3      
Aug 21 01:54 Calm 12.87 Mostly Cloudy SCT080 BKN110 23 22     94%   24 1017.6 1017.1      
Aug 21 00:54 S 5 14.48 Clear CLR 23 22     94%   24 1018 1017.3      
Aug 20 23:54 Calm 16.09 Clear CLR 23 22     91%   24 1017.6 1017.1      
Aug 20 22:54 S 8 16.09 Clear CLR 26 21     74%   26 1017.6 1016.8      
Aug 20 21:54 S 8 16.09 Clear CLR 27 20     67%   28 1018 1017.5      
Aug 20 20:54 SSW 5 16.09 Clear CLR 28 21     67%   30 1018 1017.6      
Aug 20 19:54 SSW 5 14.48 Clear CLR 28 21     65%   31 1017.3 1016.7      
Aug 20 18:54 S 8 14.48 Mostly Clear FEW070 30 20     55%   32 1017.3 1016.9      
Aug 20 17:54 S 8 16.09 Mostly Cloudy BKN070 31 20     52%   33 1017.3 1016.9      
Aug 20 16:54 5 16.09 Cloudy BKN060 OVC070 31 19     50%   33 1018.3 1017.8      
Aug 20 15:54 8 16.09 Partly Cloudy SCT055 31 19     50%   32 1018.3 1017.7      
Aug 20 14:54 Calm 16.09 Mostly Cloudy BKN050 32 20     50%   34 1019 1018.4      
Aug 20 13:54 NW 5 16.09 Mostly Cloudy BKN060 29 20     57%   31 1019.7 1019      
Aug 20 12:54 Calm 16.09 Mostly Clear FEW070 30 20     55%   32 1019.7 1019      
Aug 20 11:54 Calm 16.09 Clear CLR 28 19     59%   30 1020.3 1019.9      
Aug 20 10:54 ENE 8 16.09 Clear CLR 28 20     61%   30 1020.3 1019.9      
Aug 20 09:54 8 16.09 Clear CLR 27 19     64%   28 1020.7 1020      
Aug 20 08:54 ENE 9 14.48 Clear CLR 25 21     79%   26 1020.3 1019.8      
Aug 20 07:54 NNW 5 12.87 Clear CLR 22 21     93%   23 1020 1019.6      
Aug 20 06:54 Calm 11.27 Clear CLR 20 20     100%     1020 1019.3      
Aug 20 05:54 Calm 12.87 Clear CLR 19 19     100%     1019.3 1018.8      
Aug 20 04:54 Calm 12.87 Mostly Clear FEW080 20 20     100%     1018.6 1018.2      
Aug 20 03:54 Calm 14.48 Clear CLR 21 21     100%     1018.6 1017.9      
Aug 20 02:54 Calm 12.87 Clear CLR 20 20     100%     1018 1017.6      
Aug 20 01:54 Calm 12.87 Clear   21 21     100%     1018 1017.6      
Aug 20 00:54 Calm 14.48 Clear CLR 21 21     97%     1018 1017.4      
Aug 19 23:54 Calm 16.09 Clear CLR 22 21     93%   22 1017.6 1017.1      
Aug 19 22:54 Calm 16.09 Clear CLR 22 21     91%   23 1017.6 1017.2      
Aug 19 21:54 Calm 16.09 Clear CLR 23 21     87%   24 1017.6 1017      
Aug 19 20:54 Calm 16.09 Clear CLR 26 19     69%   26 1017.3 1016.6      
Aug 19 19:54 N 5 16.09 Clear CLR 27 20     65%   29 1016.6 1016      
Aug 19 18:54 NW 5 16.09 Clear CLR 29 19     57%   30 1015.9 1015.4      
Aug 19 17:54 9 16.09 Mostly Clear FEW055 31 19     51%   32 1015.2 1014.5      
Aug 19 16:54 NW 13 16.09 Mostly Clear FEW050 31 21     54%   34 1015.2 1014.6      
Aug 19 15:54 11 16.09 Clear CLR 32 21     53%   35 1015.6 1015      
Aug 19 14:54 NW 11 14.48 Clear CLR 31 22     61%   34 1015.6 1015.2      
Aug 19 13:54 8 11.27 Partly Cloudy SCT032 31 23     65%   35 1016.3 1015.6      
Aug 19 12:54 Calm   Clear CLR 29 23     70%   34 1016.3 1015.9      
Aug 19 11:54 5   Clear CLR 28 23     74%   32 1016.6 1016.1      
Aug 19 10:54 5 12.87 Clear CLR 27 22     76%   29 1016.9 1016.4      
Aug 19 09:54 SW 8 11.27 Partly Cloudy SCT010 24 23     91%   25 1016.9 1016.3      
Aug 19 09:45 5 11.27 Mostly Cloudy BKN010 24 23     91%   25 1016.9        
Aug 19 09:20 8 8.05 Fog/Mist OVC005 23 22     96%   24 1017.3        
Aug 19 08:54 Calm 6.44 Fog/Mist OVC003 22 22     100%   23 1016.9 1016.4      
Aug 19 08:44 Calm 6.44 Fog/Mist OVC003 22 22     100%   23 1016.9        
Aug 19 08:32 NNW 8 3.22 Fog/Mist OVC002 22 22     100%   23 1016.9        
Aug 19 08:13 NW 5 2.82 Fog/Mist OVC003 22 22     100%   23 1016.9        
Aug 19 07:54 Calm 4.83 Fog/Mist OVC004 22 22     100%   23 1016.9 1016.4      
Aug 19 07:24 Calm 8.05 Fog/Mist OVC004 22 22     100%   23 1016.9        
Aug 19 06:54 Calm 9.66 Fog/Mist OVC005 21 21     100%     1016.9 1016.4      
Aug 19 06:18 Calm 11.27 Cloudy OVC009 21 21     100%     1016.9        
Aug 19 06:05 Calm 11.27 Cloudy OVC010 21 21     100%     1016.9        
Aug 19 05:54 Calm 12.87 Cloudy OVC009 21 21     100%     1016.6 1016.1      
Aug 19 04:54 Calm 12.87 Cloudy OVC010 21 21     100%     1016.3 1015.6      
Aug 19 03:54 NW 5 11.27 Cloudy OVC013 21 21     100%     1015.9 1015.4      
Aug 19 03:38 Calm 11.27 Mostly Cloudy BKN014 21 21     100%     1015.9        
May 15 04:45 Calm 3.22 Fog/Mist CLR 16 16     100%     1013.2        
May 15 02:16 Calm 4.83 Fog/Mist CLR 17 17     100%     1013.2        
May 14 16:12 5 11.27 Mostly Cloudy SCT028 BKN038 23 17     69%   23 1014.6        
May 13 21:54 E 5 9.66 Fog/Mist OVC004 11 11     100%     1018.6 1018.6 0    
May 12 23:45 NE 11 6.44 Fog/Mist OVC004 13 13     100%     1019        
Notice The following observation data may not be complete
May 12 20:09   3.22 Light Rain and Fog/Mist BKN006 BKN039 OVC090          %         0    
May 12 08:54 5 9.66 Fog/Mist OVC010 12 12     97%     1020.3 1020      
May 12 06:06 8 14.48 Cloudy BKN020 BKN025 OVC035 10 9     96% 9   1020.7        
May 12 05:54 NNE 9 16.09 Cloudy SCT024 BKN035 OVC043 10 10     100% 9   1020.7 1020.3 0    
Notice The following observation data may not be complete
May 12 02:54 NNE 15 9.66 Light Rain OVC060   8      %     1021 1020.7 0    
Jun 12 05:54 Calm 9.66 Fog/Mist CLR 18 18     97%     1019.3 1018.9      
Jun 11 21:54 Calm 16.09 Clear   24 17     64%   24 1018 1017.5      
Jun 10 13:54 SSW 17 16.09 Mostly Clear FEW065 28 13     38%   28 1016.6 1016.2      
Jun 10 01:54 Calm 16.09 Mostly Cloudy BKN090 BKN120 18 12     68%     1014.2 1013.8      
Jun 09 16:54 11 16.09 Mostly Clear FEW075 26 11     38%   26 1009.5 1009.2      
Jun 09 14:54 NW 13 16.09 Partly Cloudy FEW070 SCT090 26 11     39%   25 1009.5 1009      
Jun 08 08:54 Calm 16.09 Clear CLR 16 12     78%     1016.9 1016.6      
Notice The following observation data may not be complete
Jun 06 08:04   16.09 Cloudy OVC008          %              
Jun 05 23:32 8 6.44 Fog/Mist FEW043 FEW075 18 18     100%     1005.8